Weather History for KOSC - April, 2013

Change the Weather History Date:

Sunday, April 28, 2013

  Actual Average Record
Temperature  
Mean Temperature 48 °F -  
Max Temperature 63 °F 55 °F 78 °F (2003)
Min Temperature 32 °F 35 °F 21 °F (1998)
Degree Days  
Heating Degree Days 18    
Moisture  
Dew Point 41 °F    
Average Humidity 75    
Maximum Humidity 99    
Minimum Humidity 49    
Precipitation  
Precipitation 0.00 in - - ()
Sea Level Pressure  
Sea Level Pressure 29.98 in    
Wind  
Wind Speed 4 mph (ESE)    
Max Wind Speed 15 mph    
Max Gust Speed 21 mph    
Visibility 9 miles    
Events Rain    
Averages and records for this station are not official NWS values.
T = Trace of Precipitation, MM = Missing Value Source: NWS Daily Summary

Daily Weather History Graph

Daily Weather History Graph

Search for Another Location

Airport or City:

Trip Planner

Search our weather history database for the weather conditions in past years. The results will help you decide how hot, cold, wet, or windy it might be!

Date:

Astronomy

Apr. 28, 2013 Rise Set
Actual Time 6:28 AM EDT 8:34 PM EDT
Civil Twilight 5:56 AM EDT 9:06 PM EDT
Nautical Twilight 5:17 AM EDT 9:45 PM EDT
Astronomical Twilight 4:34 AM EDT 10:28 PM EDT
Moon No Moon Rise 8:39 AM EDT (4/28)
Length of Visible Light 15h 09m
Length of Day
14h 06m
Waning Gibbous, 89% of the Moon is Illuminated
Apr 28
Waning Gibbous
May 2
Last Quarter
May 9
New
May 18
First Quarter
May 25
Full

Hourly Weather History & Observations

Time (EDT) Temp. Windchill Dew Point Humidity Pressure Visibility Wind Dir Wind Speed Gust Speed Precip Events Conditions
12:14 AM 41.2 °F 39.2 °F 35.2 °F 79% 30.11 in 10.0 mi SW 3.5 mph - N/A   Clear
12:34 AM 45.7 °F 44.4 °F 38.3 °F 75% 30.10 in 10.0 mi SSW 3.5 mph - N/A   Clear
12:54 AM 42.3 °F - 35.6 °F 77% 30.10 in 10.0 mi Calm Calm - N/A   Clear
1:14 AM 41.9 °F - 36.0 °F 79% 30.10 in 10.0 mi Calm Calm - N/A   Clear
1:34 AM 41.9 °F - 36.0 °F 79% 30.09 in 10.0 mi Calm Calm - N/A   Clear
1:54 AM 40.5 °F - 34.7 °F 80% 30.09 in 10.0 mi Calm Calm - N/A   Clear
2:14 AM 40.1 °F - 36.5 °F 87% 30.09 in 10.0 mi Calm Calm - N/A   Clear
2:34 AM 39.6 °F - 34.2 °F 81% 30.08 in 10.0 mi Calm Calm - N/A   Clear
2:54 AM 40.8 °F - 35.8 °F 82% 30.07 in 10.0 mi Calm Calm - N/A   Clear
3:14 AM 37.4 °F - 32.9 °F 84% 30.07 in 10.0 mi Calm Calm - N/A   Clear
3:34 AM 37.4 °F - 34.2 °F 88% 30.07 in 10.0 mi Calm Calm - N/A   Clear
3:54 AM 36.1 °F - 32.0 °F 85% 30.06 in 10.0 mi Calm Calm - N/A   Clear
4:14 AM 35.6 °F - 32.7 °F 89% 30.06 in 10.0 mi Calm Calm - N/A   Clear
4:34 AM 37.4 °F - 34.2 °F 88% 30.05 in 10.0 mi Calm Calm - N/A   Clear
4:54 AM 34.2 °F - 31.5 °F 90% 30.05 in 10.0 mi Calm Calm - N/A   Clear
5:14 AM 33.1 °F - 30.9 °F 92% 30.05 in 10.0 mi Calm Calm - N/A   Clear
5:34 AM 32.4 °F - 30.4 °F 92% 30.05 in 10.0 mi Calm Calm - N/A   Clear
5:54 AM 33.3 °F - 31.8 °F 94% 30.04 in 10.0 mi Calm Calm - N/A   Clear
6:14 AM 32.5 °F - 30.4 °F 92% 30.04 in 10.0 mi Calm Calm - N/A   Clear
6:34 AM 32.7 °F 29.6 °F 31.5 °F 95% 30.03 in 10.0 mi NNW 3.5 mph - N/A   Clear
6:54 AM 35.2 °F - 33.1 °F 92% 30.04 in 10.0 mi Calm Calm - N/A   Clear
7:14 AM 36.0 °F - 33.4 °F 91% 30.04 in 10.0 mi Calm Calm - N/A   Clear
7:34 AM 40.3 °F - 38.3 °F 93% 30.04 in 10.0 mi Calm Calm - N/A   Mostly Cloudy
7:54 AM 43.2 °F - 40.1 °F 89% 30.03 in 10.0 mi Calm Calm - N/A   Overcast
8:14 AM 45.3 °F - 41.0 °F 85% 30.03 in 10.0 mi Calm Calm - N/A   Mostly Cloudy
8:34 AM 48.0 °F - 41.0 °F 77% 30.02 in 10.0 mi Calm Calm - N/A   Mostly Cloudy
8:54 AM 51.1 °F - 38.3 °F 62% 30.02 in 10.0 mi East 4.6 mph - N/A   Overcast
9:14 AM 51.6 °F - 37.2 °F 58% 30.01 in 10.0 mi East 6.9 mph - N/A   Overcast
9:34 AM 51.4 °F - 37.9 °F 60% 30.01 in 10.0 mi East 5.8 mph - N/A   Overcast
9:54 AM 51.1 °F - 37.6 °F 60% 30.01 in 10.0 mi East 4.6 mph - N/A   Mostly Cloudy
10:14 AM 50.4 °F - 37.4 °F 61% 30.01 in 10.0 mi ESE 8.1 mph - N/A   Scattered Clouds
10:34 AM 49.6 °F - 37.8 °F 64% 30.00 in 10.0 mi ESE 3.5 mph - N/A   Mostly Cloudy
10:54 AM 50.4 °F - 38.3 °F 63% 30.00 in 10.0 mi East 4.6 mph - N/A   Overcast
11:14 AM 50.0 °F - 38.7 °F 65% 29.99 in 10.0 mi ENE 4.6 mph - N/A   Overcast
11:34 AM 50.5 °F - 39.0 °F 65% 29.99 in 10.0 mi East 5.8 mph - N/A   Overcast
11:54 AM 50.0 °F - 39.0 °F 66% 29.98 in 10.0 mi East 4.6 mph - N/A   Mostly Cloudy
12:14 PM 52.9 °F - 40.5 °F 63% 29.98 in 10.0 mi East 4.6 mph - N/A   Mostly Cloudy
12:34 PM 54.9 °F - 40.8 °F 59% 29.97 in 10.0 mi ENE 4.6 mph - N/A   Overcast
12:54 PM 58.3 °F - 41.5 °F 54% 29.96 in 10.0 mi East 5.8 mph - N/A   Scattered Clouds
1:14 PM 61.2 °F - 41.9 °F 49% 29.95 in 10.0 mi East 8.1 mph - N/A   Clear
1:34 PM 59.5 °F - 41.5 °F 51% 29.95 in 10.0 mi East 8.1 mph - N/A   Scattered Clouds
1:54 PM 60.3 °F - 41.9 °F 51% 29.94 in 10.0 mi East 9.2 mph - N/A   Scattered Clouds
2:14 PM 58.6 °F - 41.7 °F 53% 29.94 in 10.0 mi ESE 9.2 mph - N/A   Clear
2:34 PM 59.2 °F - 42.1 °F 53% 29.94 in 10.0 mi ESE 10.4 mph - N/A   Clear
2:54 PM 59.0 °F - 42.4 °F 54% 29.93 in 10.0 mi ESE 9.2 mph - N/A   Clear
3:14 PM 61.0 °F - 43.0 °F 52% 29.93 in 10.0 mi ESE 11.5 mph 16.1 mph N/A   Clear
3:34 PM 59.2 °F - 41.9 °F 53% 29.93 in 10.0 mi SE 10.4 mph - N/A   Clear
3:54 PM 61.3 °F - 43.3 °F 52% 29.92 in 10.0 mi SE 10.4 mph 18.4 mph N/A   Clear
4:14 PM 62.6 °F - 43.9 °F 50% 29.91 in 10.0 mi SE 12.7 mph 17.3 mph N/A   Clear
4:34 PM 63.3 °F - 44.1 °F 49% 29.91 in 10.0 mi SE 15.0 mph 18.4 mph N/A   Clear
4:54 PM 62.2 °F - 44.2 °F 52% 29.91 in 10.0 mi SE 12.7 mph - N/A   Clear
5:14 PM 61.9 °F - 44.6 °F 53% 29.91 in 10.0 mi ESE 11.5 mph - N/A   Scattered Clouds
5:34 PM 60.1 °F - 44.8 °F 57% 29.91 in 10.0 mi SE 11.5 mph 16.1 mph N/A   Overcast
5:54 PM 58.5 °F - 45.3 °F 62% 29.91 in 10.0 mi SE 10.4 mph 17.3 mph N/A   Overcast
6:14 PM 58.3 °F - 46.9 °F 66% 29.90 in 10.0 mi SSE 13.8 mph 20.7 mph N/A   Mostly Cloudy
6:34 PM 58.1 °F - 48.0 °F 69% 29.90 in 10.0 mi SE 10.4 mph 16.1 mph N/A   Overcast
6:54 PM 57.0 °F - 48.2 °F 72% 29.90 in 10.0 mi SE 8.1 mph 17.3 mph N/A   Overcast
7:14 PM 56.1 °F - 48.6 °F 76% 29.90 in 10.0 mi SE 9.2 mph - N/A   Overcast
7:34 PM 54.3 °F - 48.7 °F 81% 29.90 in 10.0 mi SE 9.2 mph - N/A   Scattered Clouds
7:54 PM 53.6 °F - 48.4 °F 82% 29.90 in 10.0 mi ESE 6.9 mph - N/A   Mostly Cloudy
8:14 PM 49.8 °F - 46.2 °F 87% 29.89 in 10.0 mi ESE 6.9 mph - N/A   Overcast
8:34 PM 49.3 °F - 46.6 °F 90% 29.89 in 7.0 mi ESE 4.6 mph - N/A   Overcast
8:54 PM 49.6 °F - 47.3 °F 92% 29.90 in 7.0 mi SE 3.5 mph - N/A   Overcast
9:14 PM 50.0 °F - 47.8 °F 92% 29.90 in 7.0 mi SE 3.5 mph - N/A   Overcast
9:34 PM 50.0 °F - 48.2 °F 94% 29.90 in 7.0 mi SE 4.6 mph - N/A   Overcast
9:54 PM 50.0 °F - 48.2 °F 94% 29.90 in 7.0 mi ESE 4.6 mph - N/A   Overcast
10:14 PM 49.5 °F - 47.8 °F 94% 29.90 in 7.0 mi Calm Calm - N/A   Overcast
10:34 PM 49.6 °F - 48.2 °F 95% 29.90 in 7.0 mi SE 4.6 mph - N/A   Overcast
10:54 PM 49.6 °F - 48.6 °F 96% 29.89 in 4.0 mi SE 5.8 mph - N/A   Heavy Drizzle
11:14 PM 49.5 °F - 48.9 °F 98% 29.88 in 3.0 mi ESE 3.5 mph - N/A   Heavy Drizzle
11:34 PM 49.5 °F - 49.1 °F 99% 29.88 in 3.0 mi SE 4.6 mph - N/A   Drizzle
11:54 PM 49.1 °F - 48.4 °F 97% 29.87 in 3.0 mi ESE 4.6 mph - N/A Rain Light Rain